TimeCDT,TemperatureF,Dew PointF,Humidity,Sea Level PressureIn,VisibilityMPH,Wind Direction,Wind SpeedMPH,Gust SpeedMPH,PrecipitationIn,Events,Conditions,WindDirDegrees,DateUTC
12:15 AM,28.4,26.6,93,29.75,0.8,North,10.4,18.4,N/A,Snow,Snow,360,2013-03-11 05:15:00
12:35 AM,28.4,26.6,93,29.73,0.8,North,10.4,17.3,0.01,Snow,Snow,10,2013-03-11 05:35:00
12:55 AM,28.4,26.6,93,29.72,0.8,North,11.5,-,0.02,Snow,Snow,10,2013-03-11 05:55:00
1:15 AM,28.4,26.6,93,29.71,0.8,North,10.4,-,0.01,Snow,Snow,10,2013-03-11 06:15:00
1:35 AM,28.4,26.6,93,29.71,1.0,North,6.9,-,0.02,Snow,Snow,10,2013-03-11 06:35:00
1:55 AM,28.4,26.6,93,29.70,1.0,North,8.1,16.1,0.03,Snow,Snow,360,2013-03-11 06:55:00
2:15 AM,28.4,26.6,93,29.69,1.2,North,9.2,-,N/A,Snow,Light Snow,10,2013-03-11 07:15:00
2:35 AM,28.4,26.6,93,29.68,1.8,North,11.5,16.1,0.01,Snow,Light Snow,360,2013-03-11 07:35:00
2:55 AM,28.4,26.6,93,29.67,2.5,North,8.1,-,0.02,Snow,Light Snow,10,2013-03-11 07:55:00
3:15 AM,28.4,26.6,93,29.66,2.5,North,8.1,-,0.01,Snow,Light Snow,360,2013-03-11 08:15:00
3:35 AM,28.4,26.6,93,29.65,4.0,North,6.9,-,0.02,Snow,Light Snow,360,2013-03-11 08:35:00
3:55 AM,28.4,26.6,93,29.65,5.0,North,8.1,-,0.02,Snow,Light Snow,360,2013-03-11 08:55:00
4:15 AM,28.4,24.8,86,29.64,4.0,North,5.8,-,0.01,Snow,Light Snow,360,2013-03-11 09:15:00
4:35 AM,28.4,26.6,93,29.64,3.0,North,5.8,-,0.02,Snow,Light Snow,360,2013-03-11 09:35:00
4:55 AM,28.4,26.6,93,29.64,2.0,North,6.9,-,0.02,Snow,Light Snow,350,2013-03-11 09:55:00
5:15 AM,28.4,26.6,93,29.63,2.0,North,6.9,-,0.01,Snow,Light Snow,350,2013-03-11 10:15:00
5:35 AM,28.4,26.6,93,29.63,2.0,North,8.1,-,0.02,Snow,Light Snow,350,2013-03-11 10:35:00
5:55 AM,28.4,26.6,93,29.63,1.8,North,6.9,-,0.02,Snow,Light Snow,350,2013-03-11 10:55:00
6:15 AM,28.4,24.8,86,29.63,2.5,North,8.1,-,0.01,Snow,Light Snow,350,2013-03-11 11:15:00
6:35 AM,28.4,24.8,86,29.63,5.0,North,9.2,-,0.01,Snow,Light Snow,350,2013-03-11 11:35:00
6:55 AM,28.4,24.8,86,29.63,7.0,North,9.2,-,0.02,Snow,Light Snow,360,2013-03-11 11:55:00
7:15 AM,28.4,24.8,86,29.63,7.0,North,6.9,-,N/A,Snow,Light Snow,360,2013-03-11 12:15:00
7:35 AM,28.4,24.8,86,29.65,10.0,North,9.2,-,N/A,,Overcast,360,2013-03-11 12:35:00
7:55 AM,28.4,23.0,80,29.65,10.0,North,8.1,-,0.01,,Overcast,360,2013-03-11 12:55:00
8:15 AM,28.4,23.0,80,29.65,7.0,North,8.1,-,N/A,Snow,Light Snow,360,2013-03-11 13:15:00
8:35 AM,28.4,23.0,80,29.65,10.0,North,9.2,16.1,N/A,Snow,Light Snow,350,2013-03-11 13:35:00
8:55 AM,28.4,23.0,80,29.65,5.0,North,9.2,-,N/A,Snow,Light Snow,360,2013-03-11 13:55:00
9:15 AM,28.4,23.0,80,29.65,1.5,North,6.9,-,0.01,Snow,Light Snow,360,2013-03-11 14:15:00
9:35 AM,28.4,24.8,86,29.65,1.2,North,5.8,-,0.01,Snow,Light Snow,360,2013-03-11 14:35:00
9:55 AM,28.4,24.8,86,29.64,1.2,North,5.8,-,0.01,Snow,Light Snow,360,2013-03-11 14:55:00
10:15 AM,28.4,24.8,86,29.64,1.2,North,5.8,-,N/A,Snow,Light Snow,350,2013-03-11 15:15:00
10:35 AM,28.4,24.8,86,29.63,1.0,NNW,9.2,-,N/A,Snow,Light Snow,340,2013-03-11 15:35:00
10:55 AM,28.4,24.8,86,29.62,1.2,NNW,10.4,17.3,0.01,Snow,Light Snow,340,2013-03-11 15:55:00
11:15 AM,28.4,24.8,86,29.61,1.2,North,6.9,-,N/A,Snow,Light Snow,360,2013-03-11 16:15:00
11:35 AM,28.4,24.8,86,29.60,1.0,North,9.2,-,N/A,Snow,Light Snow,350,2013-03-11 16:35:00
11:55 AM,28.4,23.0,80,29.59,1.2,North,6.9,-,N/A,Snow,Light Snow,10,2013-03-11 16:55:00
12:15 PM,28.4,23.0,80,29.58,1.8,NNW,8.1,19.6,0.01,Snow,Light Snow,340,2013-03-11 17:15:00
12:35 PM,28.4,23.0,80,29.59,1.8,North,9.2,17.3,0.01,Snow,Light Snow,10,2013-03-11 17:35:00
12:55 PM,28.4,23.0,80,29.59,2.5,North,9.2,18.4,0.01,Snow,Light Snow,350,2013-03-11 17:55:00
1:15 PM,28.4,23.0,80,29.59,1.8,NNW,10.4,19.6,N/A,Snow,Light Snow,340,2013-03-11 18:15:00
1:35 PM,28.4,23.0,80,29.59,5.0,North,9.2,-,0.02,,Haze,350,2013-03-11 18:35:00
1:55 PM,28.4,23.0,80,29.59,7.0,NNW,9.2,-,0.02,,Overcast,340,2013-03-11 18:55:00
2:15 PM,28.4,23.0,80,29.58,10.0,North,10.4,-,N/A,,Overcast,360,2013-03-11 19:15:00
2:35 PM,28.4,23.0,80,29.58,10.0,NNW,9.2,-,N/A,,Overcast,340,2013-03-11 19:35:00
2:55 PM,28.4,23.0,80,29.58,2.0,NNW,8.1,-,N/A,Snow,Light Snow,340,2013-03-11 19:55:00
3:15 PM,28.4,23.0,80,29.58,1.2,NNW,9.2,-,N/A,Snow,Light Snow,340,2013-03-11 20:15:00
3:35 PM,28.4,23.0,80,29.58,1.8,NNW,11.5,18.4,0.01,Snow,Light Snow,340,2013-03-11 20:35:00
3:55 PM,28.4,21.2,74,29.58,5.0,NNW,15.0,19.6,0.01,Snow,Light Snow,330,2013-03-11 20:55:00
4:15 PM,28.4,21.2,74,29.59,2.5,NNW,12.7,21.9,N/A,Snow,Light Snow,340,2013-03-11 21:15:00
4:35 PM,26.6,21.2,80,29.59,3.0,North,11.5,18.4,N/A,Snow,Light Snow,350,2013-03-11 21:35:00
4:55 PM,26.6,21.2,80,29.59,2.0,NNW,11.5,17.3,N/A,Snow,Light Snow,340,2013-03-11 21:55:00
5:15 PM,26.6,21.2,80,29.59,1.5,NNW,13.8,17.3,N/A,Snow,Light Snow,340,2013-03-11 22:15:00
5:35 PM,26.6,21.2,80,29.60,1.8,NNW,8.1,-,N/A,Snow,Light Snow,330,2013-03-11 22:35:00
6:15 PM,23.0,19.4,86,29.61,2.5,NNW,10.4,-,N/A,Snow,Light Snow,330,2013-03-11 23:15:00
6:35 PM,23.0,19.4,86,29.61,3.0,NW,11.5,-,N/A,Snow,Light Snow,320,2013-03-11 23:35:00
6:55 PM,23.0,19.4,86,29.61,2.0,NW,10.4,16.1,N/A,Snow,Light Snow,320,2013-03-11 23:55:00
7:15 PM,23.0,19.4,86,29.62,3.0,NNW,12.7,17.3,N/A,Snow,Light Snow,330,2013-03-12 00:15:00
7:35 PM,23.0,19.4,86,29.63,7.0,NW,8.1,-,N/A,,Overcast,320,2013-03-12 00:35:00
7:55 PM,23.0,17.6,80,29.64,10.0,NW,9.2,-,N/A,,Overcast,310,2013-03-12 00:55:00
8:15 PM,23.0,17.6,80,29.65,10.0,NW,10.4,17.3,N/A,,Overcast,310,2013-03-12 01:15:00
8:35 PM,21.2,17.6,86,29.66,10.0,NW,5.8,-,N/A,,Overcast,320,2013-03-12 01:35:00
8:55 PM,21.2,17.6,86,29.67,10.0,NW,10.4,-,N/A,,Overcast,320,2013-03-12 01:55:00
9:15 PM,21.2,17.6,86,29.68,10.0,NNW,6.9,-,N/A,,Overcast,330,2013-03-12 02:15:00
9:35 PM,21.2,17.6,86,29.69,10.0,NNW,6.9,-,N/A,,Overcast,330,2013-03-12 02:35:00
9:55 PM,21.2,17.6,86,29.68,10.0,NW,6.9,-,N/A,,Overcast,320,2013-03-12 02:55:00
10:15 PM,21.2,17.6,86,29.68,7.0,NW,8.1,-,N/A,Snow,Light Snow,320,2013-03-12 03:15:00
10:35 PM,21.2,17.6,86,29.69,7.0,NW,4.6,-,N/A,Snow,Light Snow,310,2013-03-12 03:35:00
10:55 PM,21.2,17.6,86,29.69,10.0,WNW,5.8,-,N/A,Snow,Light Snow,300,2013-03-12 03:55:00
11:15 PM,21.2,17.6,86,29.68,10.0,WNW,4.6,-,N/A,Snow,Light Snow,290,2013-03-12 04:15:00
11:35 PM,21.2,17.6,86,29.68,5.0,West,4.6,-,N/A,Snow,Light Snow,280,2013-03-12 04:35:00
11:55 PM,21.2,17.6,86,29.68,7.0,WNW,4.6,-,N/A,Snow,Light Snow,290,2013-03-12 04:55:00